Tracking 29892 objects as of 21-Nov-2024
HD Live streaming from Space Station
objects crossing your sky now

STARLINK-31058

Track STARLINK-31058 now!
10-day predictions
STARLINK-31058 is classified as:


NORAD ID: 58677
Int'l Code: 2023-211L
Perigee: 494.0 km
Apogee: 496.2 km
Inclination: 43.0 °
Period: 94.4 minutes
Semi major axis: 6866 km
RCS: Unknown
Launch date: December 29, 2023
Source: United States (US)
Launch site: AIR FORCE EASTERN TEST RANGE (AFETR)
Your satellite tracking list
Your tracking list is empty




NASA's NSSDC Master Catalog

Two Line Element Set (TLE):
1 58677U 23211L   24326.08061112  .00005802  00000-0  23127-3 0  9991
2 58677  43.0027 237.2740 0001639 254.4093 105.6578 15.25938152 51247
Source of the keplerian elements: AFSPC